This demonstration page uses our WeatherBlox Daily Observations layout. Learn more.

Hourly Observations for October 20, 2020

Temp ( °F °C ) Dew Point ( °F °C ) Humidity (%) Winds ( mph kmh ) Pressure ( in mb ) Visibility ( mi km ) Precip ( " mm )
12:15 am 00:15 Clear 57 14 55 13 94 94 S 9 15 30.24 1024 10 16.0934 0 0
12:35 am 00:35 Clear 59 15 55 13 88 88 S 6 9 30.25 1024 10 16.0934 0 0
12:55 am 00:55 Clear 57 14 55 13 94 94 S 5 7 30.24 1024 10 16.0934 0 0
1:15 am 01:15 Clear 57 14 55 13 94 94 S 8 13 30.24 1024 10 16.0934 0 0
1:35 am 01:35 Clear 55 13 54 12 94 94 S 3 6 30.23 1024 10 16.0934 0 0
1:55 am 01:55 Clear 54 12 54 12 100 100 S 6 9 30.23 1024 10 16.0934 0 0
2:15 am 02:15 Clear 54 12 54 12 100 100 S 3 6 30.23 1024 10 16.0934 0 0
2:35 am 02:35 Clear 54 12 54 12 100 100 Calm 30.23 1024 10 16.0934 0 0
2:55 am 02:55 Clear 54 12 54 12 100 100 S 3 6 30.23 1024 10 16.0934 0 0
3:15 am 03:15 Clear 52 11 52 11 100 100 SSW 3 6 30.23 1024 10 16.0934 0 0
3:35 am 03:35 Clear 52 11 52 11 100 100 Calm 30.23 1024 10 16.0934 0 0
3:55 am 03:55 Clear 50 10 50 10 100 100 Calm 30.23 1024 7 11.26538 0 0
4:15 am 04:15 Clear 52 11 52 11 100 100 S 6 9 30.21 1023 10 16.0934 0 0
4:35 am 04:35 Clear 50 10 50 10 100 100 Calm 30.22 1023 10 16.0934 0 0
4:55 am 04:55 Clear 50 10 50 10 100 100 NNW 3 6 30.23 1024 10 16.0934 0 0
5:15 am 05:15 Clear N/A N/A N/A W 3 6 N/A 10 16.0934 0 0
5:35 am 05:35 Clear 48 9 48 9 100 100 Calm 30.22 1023 10 16.0934 0 0
5:55 am 05:55 Clear 50 10 50 10 100 100 Calm 30.22 1023 10 16.0934 0 0
6:15 am 06:15 Clear N/A N/A N/A Calm N/A 10 16.0934 0 0
6:35 am 06:35 Clear 48 9 48 9 100 100 Calm 30.23 1024 10 16.0934 0 0
6:55 am 06:55 Clear 48 9 48 9 100 100 Calm 30.24 1024 10 16.0934 0 0
7:15 am 07:15 Clear 50 10 50 10 100 100 ESE 3 6 30.22 1023 10 16.0934 0 0
7:35 am 07:35 Sunny 46 8 46 8 100 100 SE 3 6 30.22 1023 10 16.0934 0 0
7:55 am 07:55 Sunny 46 8 46 8 100 100 Calm 30.23 1024 10 16.0934 0 0
8:15 am 08:15 Sunny 46 8 46 8 100 100 Calm 30.24 1024 10 16.0934 0 0
8:35 am 08:35 Sunny 48 9 48 9 100 100 Calm 30.24 1024 7 11.26538 0 0
8:55 am 08:55 Mostly Cloudy 50 10 50 10 100 100 Calm 30.25 1024 10 16.0934 0 0
9:15 am 09:15 Mostly Cloudy 52 11 52 11 100 100 S 6 9 30.24 1024 10 16.0934 0 0
9:35 am 09:35 Partly Cloudy 54 12 54 12 100 100 SSW 3 6 30.24 1024 10 16.0934 0 0
9:55 am 09:55 Partly Cloudy 54 12 54 12 100 100 SW 5 7 30.24 1024 10 16.0934 0 0
10:15 am 10:15 Sunny 55 13 54 12 94 94 SSW 6 9 30.25 1024 10 16.0934 0 0
10:35 am 10:35 Sunny 57 14 54 12 88 88 S 5 7 30.25 1024 10 16.0934 0 0
10:55 am 10:55 Sunny 59 15 55 13 88 88 S 5 7 30.25 1024 10 16.0934 0 0
11:15 am 11:15 Sunny 61 16 55 13 83 83 SSW 6 9 30.25 1024 10 16.0934 0 0
11:35 am 11:35 Sunny 63 17 55 13 77 77 S 5 7 30.25 1024 10 16.0934 0 0
11:55 am 11:55 Sunny 63 17 55 13 77 77 S 3 6 30.25 1024 10 16.0934 0 0
12:15 pm 12:15 Sunny 64 18 57 14 78 78 Calm 30.23 1024 10 16.0934 0 0
12:35 pm 12:35 Sunny 66 19 55 13 68 68 Calm 30.23 1024 10 16.0934 0 0
12:55 pm 12:55 Sunny 68 20 57 14 69 69 Calm 30.22 1023 10 16.0934 0 0
1:15 pm 13:15 Sunny 70 21 57 14 64 64 Calm 30.22 1023 10 16.0934 0 0
1:35 pm 13:35 Sunny 70 21 57 14 64 64 Calm 30.21 1023 10 16.0934 0 0
1:55 pm 13:55 Sunny 70 21 57 14 64 64 Calm 30.21 1023 10 16.0934 0 0
2:15 pm 14:15 Sunny N/A N/A N/A SE 5 7 N/A 10 16.0934 0 0
2:35 pm 14:35 Sunny N/A N/A N/A SSE 6 9 N/A 10 16.0934 0 0
2:55 pm 14:55 Sunny N/A N/A N/A ESE 6 9 N/A 10 16.0934 0 0
3:15 pm 15:15 Sunny N/A N/A N/A S 5 7 N/A 10 16.0934 0 0
3:35 pm 15:35 Sunny N/A N/A N/A SE 6 9 N/A 10 16.0934 0 0
3:55 pm 15:55 Sunny N/A N/A N/A SE 6 9 N/A 10 16.0934 0 0
4:15 pm 16:15 Sunny N/A N/A N/A SSE 3 6 N/A 10 16.0934 0 0
4:35 pm 16:35 Sunny N/A N/A N/A S 6 9 N/A 10 16.0934 0 0
4:55 pm 16:55 Sunny N/A N/A N/A S 6 9 N/A 10 16.0934 0 0
5:15 pm 17:15 Sunny N/A N/A N/A S 3 6 N/A 10 16.0934 0 0
5:35 pm 17:35 Sunny N/A N/A N/A SSE 6 9 N/A 10 16.0934 0 0
5:55 pm 17:55 Sunny N/A N/A N/A SSE 3 6 N/A 10 16.0934 0 0
6:15 pm 18:15 Sunny N/A N/A N/A SSE 6 9 N/A 10 16.0934 0 0
6:35 pm 18:35 Clear N/A N/A N/A SSE 5 7 N/A 10 16.0934 0 0
6:55 pm 18:55 Clear N/A N/A N/A undefined N/A N/A 10 16.0934 0 0
7:15 pm 19:15 Clear N/A N/A N/A SSE 6 9 N/A 10 16.0934 0 0
7:35 pm 19:35 Clear N/A N/A N/A SSE 5 7 N/A 10 16.0934 0 0
7:55 pm 19:55 Clear N/A N/A N/A SSE 6 9 N/A 10 16.0934 0 0
8:15 pm 20:15 Clear N/A N/A N/A SE 3 6 N/A 10 16.0934 0 0
8:35 pm 20:35 Clear N/A N/A N/A Calm N/A 10 16.0934 0 0
8:55 pm 20:55 Clear N/A N/A N/A SSE 3 6 N/A 10 16.0934 0 0
9:15 pm 21:15 Clear N/A N/A N/A SSE 3 6 N/A 10 16.0934 0 0
9:35 pm 21:35 Clear N/A N/A N/A Calm N/A 10 16.0934 0 0
9:55 pm 21:55 Clear N/A N/A N/A Calm N/A 10 16.0934 0 0
10:15 pm 22:15 Clear 59 15 59 15 100 100 Calm 30.24 1024 10 16.0934 0 0
10:35 pm 22:35 Clear N/A N/A N/A SSE 3 6 N/A 10 16.0934 0 0
10:55 pm 22:55 Clear 61 16 59 15 94 94 SSE 3 6 30.24 1024 10 16.0934 0 0
11:15 pm 23:15 Clear 57 14 55 13 94 94 Calm 30.25 1024 10 16.0934 0 0
11:35 pm 23:35 Clear 57 14 57 14 100 100 Calm 30.24 1024 10 16.0934 0 0
11:55 pm 23:55 Clear 55 13 55 13 100 100 Calm 30.24 1024 10 16.0934 0 0

Powered by AerisWeather